Weather History for Bastrop, LA

Change the Weather History Date:

Saturday, April 27, 2013

  Actual Average (KMLU) Record (KMLU)
Temperature  
Mean Temperature 74 °F 69 °F  
Max Temperature 82 °F 81 °F 95 °F (1987)
Min Temperature 66 °F 57 °F 45 °F (1992)
Degree Days  
Heating Degree Days 0 1  
Month to date heating degree days 78  
Since 1 July heating degree days 2222  
Cooling Degree Days 9 5  
Month to date cooling degree days 87  
Year to date cooling degree days 130  
Growing Degree Days 24 (Base 50)    
Moisture  
Dew Point 65 °F    
Average Humidity 73    
Maximum Humidity 90    
Minimum Humidity 56    
Precipitation  
Precipitation 0.00 in 0.15 in 3.39 in (2011)
Month to date precipitation 4.06  
Year to date precipitation 18.42  
Snow  
Snow 0.00 in - - ()
Month to date snowfall  
Since 1 July snowfall  
Snow Depth -    
Sea Level Pressure  
Sea Level Pressure 30.06 in    
Wind  
Wind Speed 3 mph (SSW)    
Max Wind Speed 14 mph    
Max Gust Speed 22 mph    
Visibility 10 miles    
Events Rain , Thunderstorm    
T = Trace of Precipitation, MM = Missing Value Source: NWS Daily Summary

Daily Weather History Graph

Daily Weather History Graph

Search for Another Location

Airport:

Trip Planner

Search our weather history database for the weather conditions in past years. The results will help you decide how hot, cold, wet, or windy it might be!

Date:

Astronomy

Apr. 27, 2013 Rise Set
Actual Time 6:24 AM CDT 7:46 PM CDT
Civil Twilight 5:58 AM CDT 8:12 PM CDT
Nautical Twilight 5:27 AM CDT 8:43 PM CDT
Astronomical Twilight 4:54 AM CDT 9:16 PM CDT
Moon 10:10 PM CDT (4/27) 7:48 AM CDT (4/27)
Length of Visible Light 14h 14m
Length of Day
13h 22m
Waning Gibbous, 95% of the Moon is Illuminated
Apr 27
Waning Gibbous
May 2
Last Quarter
May 9
New
May 17
First Quarter
May 24
Full

Hourly Weather History & Observations

Time (CDT) Temp. Heat Index Dew Point Humidity Pressure Visibility Wind Dir Wind Speed Gust Speed Precip Events Conditions
12:15 AM 67.5 °F - 62.2 °F 83% 30.16 in 10.0 mi Calm Calm - N/A   Overcast
12:35 AM 67.1 °F - 62.2 °F 84% 30.15 in 10.0 mi Calm Calm - N/A   Mostly Cloudy
12:55 AM 66.9 °F - 61.9 °F 84% 30.15 in 10.0 mi Calm Calm - N/A   Scattered Clouds
1:15 AM 68.0 °F - 62.2 °F 82% 30.15 in 10.0 mi Calm Calm - N/A   Mostly Cloudy
1:35 AM 69.1 °F - 62.6 °F 80% 30.15 in 10.0 mi Calm Calm - N/A   Mostly Cloudy
1:55 AM 68.9 °F - 62.8 °F 81% 30.14 in 10.0 mi Calm Calm - N/A   Mostly Cloudy
2:15 AM 68.0 °F - 62.8 °F 83% 30.13 in 10.0 mi Calm Calm - N/A   Scattered Clouds
2:35 AM 68.4 °F - 63.3 °F 84% 30.12 in 10.0 mi Calm Calm - N/A   Scattered Clouds
2:55 AM 68.4 °F - 63.3 °F 84% 30.11 in 10.0 mi Calm Calm - N/A   Mostly Cloudy
3:15 AM 68.4 °F - 63.5 °F 84% 30.12 in 10.0 mi Calm Calm - N/A   Scattered Clouds
3:35 AM 68.9 °F - 63.7 °F 83% 30.11 in 10.0 mi Calm Calm - N/A   Mostly Cloudy
3:55 AM 68.0 °F - 63.5 °F 85% 30.11 in 10.0 mi Calm Calm - N/A   Mostly Cloudy
4:15 AM 68.0 °F - 63.5 °F 85% 30.11 in 10.0 mi Calm Calm - N/A   Mostly Cloudy
4:35 AM 68.2 °F - 63.5 °F 85% 30.11 in 10.0 mi Calm Calm - N/A   Mostly Cloudy
4:55 AM 67.8 °F - 63.5 °F 86% 30.10 in 10.0 mi Calm Calm - N/A   Scattered Clouds
5:15 AM 67.6 °F - 63.5 °F 87% 30.11 in 7.0 mi Calm Calm - N/A   Scattered Clouds
6:35 AM 67.1 °F - 63.7 °F 89% 30.10 in 4.0 mi Calm Calm - N/A   Clear
6:55 AM 67.1 °F - 64.0 °F 90% 30.12 in 4.0 mi Calm Calm - N/A   Scattered Clouds
7:15 AM 67.3 °F - 64.4 °F 90% 30.12 in 4.0 mi South 3.5 mph - N/A   Mostly Cloudy
7:35 AM 67.6 °F - 64.4 °F 89% 30.12 in 4.0 mi Calm Calm - N/A   Mostly Cloudy
7:55 AM 68.5 °F - 64.8 °F 88% 30.12 in 5.0 mi Calm Calm - N/A   Overcast
8:15 AM 69.8 °F - 65.3 °F 86% 30.12 in 5.0 mi Calm Calm - N/A   Haze
8:35 AM 71.2 °F - 65.8 °F 83% 30.12 in 10.0 mi South 6.9 mph - N/A   Overcast
8:55 AM 72.1 °F - 66.0 °F 81% 30.12 in 10.0 mi SSW 6.9 mph - N/A   Overcast
9:15 AM 72.7 °F - 66.2 °F 80% 30.11 in 10.0 mi South 4.6 mph - N/A   Overcast
9:35 AM 74.5 °F - 65.8 °F 74% 30.10 in 10.0 mi South 11.5 mph - N/A   Overcast
9:55 AM 76.1 °F - 65.8 °F 70% 30.10 in 10.0 mi South 12.7 mph 18.4 mph N/A   Mostly Cloudy
10:15 AM 74.3 °F - 65.5 °F 74% 30.11 in 10.0 mi SSW 5.8 mph 9.2 mph N/A   Overcast
10:35 AM 75.2 °F - 65.3 °F 71% 30.11 in 10.0 mi SW 9.2 mph - N/A   Overcast
10:55 AM 77.2 °F - 66.0 °F 68% 30.11 in 10.0 mi SSW 8.1 mph 16.1 mph N/A   Mostly Cloudy
11:15 AM 76.5 °F - 65.7 °F 69% 30.11 in 10.0 mi SSW 6.9 mph - N/A   Overcast
11:35 AM 76.6 °F - 65.1 °F 67% 30.10 in 10.0 mi SSW 11.5 mph - N/A   Overcast
11:55 AM 76.3 °F - 64.8 °F 67% 30.10 in 10.0 mi SW 8.1 mph - N/A   Overcast
12:15 PM 76.5 °F - 65.3 °F 68% 30.10 in 10.0 mi SSW 6.9 mph - N/A   Overcast
12:35 PM 75.6 °F - 65.3 °F 70% 30.09 in 10.0 mi SSW 6.9 mph - N/A   Overcast
12:55 PM 75.2 °F - 65.5 °F 72% 30.09 in 10.0 mi SSW 10.4 mph - N/A   Overcast
1:15 PM 76.5 °F - 65.8 °F 70% 30.08 in 10.0 mi SSW 6.9 mph - N/A   Overcast
1:35 PM 77.0 °F - 65.8 °F 68% 30.08 in 10.0 mi SSW 4.6 mph - N/A   Overcast
1:55 PM 78.4 °F - 65.3 °F 64% 30.07 in 10.0 mi SSW 10.4 mph 16.1 mph N/A   Overcast
2:15 PM 78.8 °F - 66.2 °F 65% 30.07 in 10.0 mi SSW 9.2 mph - N/A   Overcast
2:35 PM 80.6 °F 82.4 °F 65.1 °F 59% 30.06 in 10.0 mi SSW 13.8 mph 18.4 mph N/A   Mostly Cloudy
2:55 PM 79.0 °F - 64.6 °F 61% 30.05 in 10.0 mi SSW 10.4 mph 21.9 mph N/A   Mostly Cloudy
3:15 PM 79.2 °F - 65.3 °F 62% 30.04 in 10.0 mi SSW 9.2 mph - N/A   Overcast
3:35 PM 79.9 °F - 64.9 °F 60% 30.03 in 10.0 mi SSW 8.1 mph 18.4 mph N/A   Mostly Cloudy
3:55 PM 82.0 °F 84.1 °F 65.8 °F 58% 30.02 in 10.0 mi SSW 9.2 mph - N/A   Mostly Cloudy
4:15 PM 81.5 °F 83.4 °F 65.7 °F 58% 30.02 in 10.0 mi SSW 13.8 mph 17.3 mph N/A   Overcast
4:35 PM 80.2 °F 82.2 °F 65.5 °F 61% 30.01 in 10.0 mi SSW 4.6 mph - N/A   Overcast
4:55 PM 81.9 °F 83.9 °F 65.8 °F 58% 30.00 in 10.0 mi SSW 10.4 mph 17.3 mph N/A   Mostly Cloudy
5:15 PM 82.2 °F 84.0 °F 65.3 °F 56% 29.99 in 10.0 mi SSW 9.2 mph 17.3 mph N/A   Scattered Clouds
5:35 PM 81.5 °F 83.4 °F 65.5 °F 58% 29.99 in 10.0 mi SSW 6.9 mph 10.4 mph N/A   Scattered Clouds
5:55 PM 81.9 °F 83.7 °F 65.3 °F 57% 29.98 in 10.0 mi South 9.2 mph - N/A   Scattered Clouds
6:15 PM 81.1 °F 83.2 °F 66.0 °F 60% 29.98 in 10.0 mi South 6.9 mph 10.4 mph N/A   Scattered Clouds
6:35 PM 80.4 °F 82.6 °F 66.4 °F 62% 29.98 in 10.0 mi Calm Calm - N/A   Scattered Clouds
6:55 PM 79.5 °F - 66.2 °F 64% 29.97 in 10.0 mi South 5.8 mph - N/A   Scattered Clouds
7:15 PM 77.9 °F - 66.2 °F 67% 29.95 in 10.0 mi Calm Calm - N/A   Clear
7:35 PM 76.1 °F - 66.2 °F 71% 29.95 in 10.0 mi Calm Calm - N/A   Clear
7:55 PM 75.9 °F - 66.2 °F 72% 29.97 in 10.0 mi Calm Calm - N/A   Clear
8:15 PM 76.1 °F - 66.2 °F 71% 29.97 in 10.0 mi Calm Calm - N/A   Clear
8:35 PM 76.1 °F - 66.4 °F 72% 29.97 in 10.0 mi South 6.9 mph - N/A Thunderstorm Mostly Cloudy
8:55 PM 75.9 °F - 66.6 °F 73% 29.96 in 10.0 mi South 8.1 mph - N/A Rain Light Rain
9:15 PM 76.3 °F - 66.4 °F 71% 29.97 in 10.0 mi South 3.5 mph - N/A Rain Light Rain
9:35 PM 76.1 °F - 66.2 °F 71% 29.97 in 10.0 mi SW 11.5 mph - N/A   Scattered Clouds
9:55 PM 75.4 °F - 66.2 °F 73% 29.98 in 10.0 mi Calm Calm - N/A   Clear
10:15 PM 75.2 °F - 65.7 °F 72% 29.99 in 10.0 mi SSW 5.8 mph - N/A   Clear
10:35 PM 75.7 °F - 63.7 °F 66% 29.98 in 10.0 mi Calm Calm - N/A   Clear
10:55 PM 75.2 °F - 65.1 °F 71% 29.99 in 10.0 mi Calm Calm - N/A   Clear
11:15 PM 75.2 °F - 65.3 °F 71% 30.01 in 10.0 mi WSW 6.9 mph - N/A   Scattered Clouds
11:35 PM 74.3 °F - 65.5 °F 74% 30.01 in 10.0 mi Calm Calm - N/A   Scattered Clouds
11:55 PM 73.6 °F - 65.1 °F 75% 30.01 in 10.0 mi West 5.8 mph - N/A   Mostly Cloudy